Location: Lecco
(45.8566°N, 9.3977°E)
Time: 12:12:31
(UTC+02:00)

Explorer 11/Cluster Stage 4 - Pass Details

Date: 17 August 2020
Orbit: 467 x 1258 km, 28.8° (Epoch: 24 September)

Event Time Altitude Azimuth Distance (km) Brightness Sun altitude
Rises 23:18:13 0° 245° (WSW) 3,915 10.3 -24.4°
Reaches altitude 10° 23:21:39 10° 230° (SW) 3,062 9.5 -24.7°
Enters shadow 23:24:41 18° 209° (SSW) 2,563 8.9 -25.0°
Maximum altitude 23:27:07 21° 186° (S) 2,445 - -25.3°
Drops below altitude 10° 23:32:51 10° 141° (SE) 3,227 - -25.8°
Sets 23:36:35 0° 127° (SE) 4,185 - -26.1°
